Regional Weather Roundup
Issued by NWS

Home | Current Version | Previous Version | Graphics & Text | Print | Product List | Glossary On
Versions: 1 2 3 4 5 6 7 8 9 10 11 12 13 14 15 16 17 18 19 20 21 22 23 24 25 26 27 28 29 30 31 32 33 34 35 36 37 38 39 40 41 42 43 44 45 46 47 48 49 50
000
ASUS43 KFSD 201602
RWRSD

WEATHER ROUNDUP FOR SOUTH DAKOTA
NATIONAL WEATHER SERVICE SIOUX FALLS SD
1100 AM CDT MON APR 20 2015

NOTE: "FAIR" INDICATES FEW OR NO CLOUDS BELOW 12,000 FEET WITH NO
SIGNIFICANT WEATHER AND/OR OBSTRUCTIONS TO VISIBILITY.


SDZ001>005-009-010-012>017-201700-
NORTHWEST AND NORTH CENTRAL SOUTH DAKOTA

CITY           SKY/WX    TMP DP  RH WIND       PRES   REMARKS
BUFFALO          N/A     46  20  35 NW26G33   29.84F
FAITH            N/A     46  17  31 NW21G29   29.87F
MOBRIDGE       SUNNY     45   8  22 NW28G37   29.79F
$$

SDZ012>016-024>037-041>051-057-063-072>074-201700-
SOUTHWEST AND SOUTH CENTRAL SOUTH DAKOTA

CITY           SKY/WX    TMP DP  RH WIND       PRES   REMARKS
RAPID CTY ARPT MOSUNNY   46  21  37 NW26      29.92S
PIERRE         SUNNY     47  21  35 NW26G38   29.84F
CUSTER         CLOUDY    35  13  40 NW10G29   29.91S WCI  27
ELLSWORTH AFB  MOSUNNY   47  22  36 N24G36    29.91S
PHILIP         SUNNY     48  17  29 NW23G29   29.90F
PINE RIDGE     SUNNY     47  20  34 NW18G31   29.94F
WINNER         FAIR      48  20  32 NW22G33   29.87S
$$

SDZ004>011-016>023-039-040-201700-
NORTHEAST SOUTH DAKOTA

CITY           SKY/WX    TMP DP  RH WIND       PRES   REMARKS
ABERDEEN       CLOUDY    41  25  53 NW23G35   29.75F
WATERTOWN      CLOUDY    39  27  62 NW24G32   29.67S
BROOKINGS      PTSUNNY   41  28  60 NW24G33   29.69R
SISSETON         N/A     35  32  88 N28G35    29.66S WCI  22
$$

SDZ017-020-022-023-036>040-048>070-201700-
SOUTHEAST SOUTH DAKOTA

CITY           SKY/WX    TMP DP  RH WIND       PRES   REMARKS
SIOUX FALLS    MOSUNNY   45  22  40 NW26G39   29.71S
HURON          SUNNY     45  20  36 NW28G38   29.75F
MITCHELL       SUNNY     50  15  24 NW30G37   29.78F
YANKTON        MOSUNNY  N/A N/A N/A W31G39    29.77F
$$

ABBREVIATIONS USED IN REMARKS
   TC - TEMPERATURE IN CELSIUS
  WCI - WIND CHILL INDEX
   HX - HEAT INDEX
  VSB - VISIBILITY




USA.gov is the U.S. government's official web portal to all federal, state and local government web resources and services.